Regional Weather Roundup
Issued by NWS

Home | Current Version | Previous Version | Graphics & Text | Print | Product List | Glossary On
Versions: 1 2 3 4 5 6 7 8 9 10 11 12 13 14 15 16 17 18 19 20 21 22 23 24 25 26 27 28 29 30 31 32 33 34 35 36 37 38 39 40 41 42 43 44 45 46 47 48 49 50
000
ASUS45 KPSR 180410
RWRAZ

ARIZONA REGIONAL HOURLY WEATHER ROUNDUP
NATIONAL WEATHER SERVICE PHOENIX AZ
900 PM MST THU APR 17 2014

NOTE: FAIR INDICATES FEW OR NO CLOUDS BELOW 12,000 FEET WITH NO
SIGNIFICANT WEATHER AND/OR OBSTRUCTIONS TO VISIBILITY.

AZZ001>003-036-180500-
NORTHWEST ARIZONA

CITY           SKY/WX    TMP DP  RH WIND       PRES   REMARKS
BULLHEAD CITY  MOCLDY    82  21  10 SE13      29.78R
KINGMAN        MOCLDY    66  16  14 S12       29.93R
$$

AZZ004>008-015-016-018-180500-
NORTH CENTRAL ARIZONA

CITY           SKY/WX    TMP DP  RH WIND       PRES   REMARKS
GRAND CANYON   PTCLDY    43  15  32 CALM      30.12R
WILLIAMS       MOCLDY    54  14  20 S3        30.20R
PRESCOTT       MOCLDY    62  19  19 S3        30.05R
FLAGSTAFF      MOCLDY    50  18  28 CALM      30.15R
PAYSON         MOCLDY    63  19  19 CALM      30.08R
PAGE           CLEAR     72  22  15 S9        29.92R
$$

AZZ009>014-017-180500-
NORTHEAST ARIZONA

CITY           SKY/WX    TMP DP  RH WIND       PRES   REMARKS
WINSLOW        MOCLDY    65  23  20 S10       30.03R
SAINT JOHNS    PTCLDY    59  20  22 S6        30.07R
WINDOW ROCK    CLEAR     54  18  24 E8        30.16R
SHOW LOW       PTCLDY    55  16  21 S5        30.15R
$$

AZZ023-180500-
GREATER PHOENIX AREA

CITY           SKY/WX    TMP DP  RH WIND       PRES   REMARKS
PHOENIX        MOCLDY    87  24  10 W7        29.80R
BUCKEYE          N/A     73  21  14 SW6       29.82R
LUKE AFB       NOT AVBL
DEER VALLEY    MOCLDY    79  18  10 NE5       29.82R
SCOTTSDALE     MOCLDY    81  26  13 N5        29.83S
MESA-GATEWAY   MOCLDY    79  23  12 CALM      29.83R
CHANDLER       MOCLDY    79  28  15 W6        29.81R
$$

AZZ027-028-180500-
SOUTHWEST MARICOPA COUNTY AND PINAL COUNTY

CITY           SKY/WX    TMP DP  RH WIND       PRES   REMARKS
CASA GRANDE    MOCLDY    79  27  14 W7        29.84R
GILA BEND      MOCLDY    77  30  18 W8        29.83R
$$

AZZ503-504-507>509-180500-
SOUTHEAST ARIZONA

CITY           SKY/WX    TMP DP  RH WIND       PRES   REMARKS
TUCSON         MOCLDY    79  19  10 W5        29.92R
DAVIS-MONTHAN  MOCLDY    78  22  12 W7        29.91R
NOGALES        CLOUDY    67  23  19 E5        30.00R
SIERRA VISTA   MOCLDY    70  19  14 W12       30.04R
DOUGLAS        MOCLDY    65  12  12 E6        30.00R
SAFFORD        PTCLDY    72   9   8 SE7       29.92R
$$

AZZ020-021-025-026-031-180500-
SOUTHWEST ARIZONA

CITY           SKY/WX    TMP DP  RH WIND       PRES   REMARKS
YUMA           CLOUDY    76  36  23 W8        29.81R
$$

CAZ031-033-041-043-047-048-061-180500-
SOUTHERN CALIFORNIA

CITY           SKY/WX    TMP DP  RH WIND       PRES   REMARKS
DOWNTOWN L.A.  CLOUDY    62  53  72 CALM      29.89R
L.A. AIRPORT   CLOUDY    62  52  69 SE6       29.90R
SAN DIEGO      CLOUDY    63  52  67 S9        29.94R
BURBANK        CLOUDY    60  53  77 SE8       29.88R
ONTARIO        CLOUDY    60  53  77 W9        29.89R
RIVERSIDE      CLOUDY    61  53  75 W10       29.89R
PALM SPRINGS   CLOUDY    79  54  41 E5        29.82R
EL CENTRO NAS  CLOUDY    73  44  35 SE5       29.76S
IMPERIAL       CLOUDY    77  40  26 SE12      29.76R
BLYTHE         CLOUDY    81  38  21 SW8       29.79R
NEEDLES        MOCLDY    85  18   8 SW9       29.79R
$$

NVZ020-UTZ003-180500-
SOUTHERN NEVADA-UTAH

CITY           SKY/WX    TMP DP  RH WIND       PRES   REMARKS
LAS VEGAS      CLOUDY    81  18   9 S14G23    29.77R
SALT LAKE CITY MOCLDY    59  30  33 SE9       29.84R
$$

NMZ009-TXZ055-180500-
NEW MEXICO-WEST TEXAS

CITY           SKY/WX    TMP DP  RH WIND       PRES   REMARKS
ALBUQUERQUE    CLEAR     60  25  26 E16       30.13R
EL PASO        CLEAR     68  28  22 E16G25    30.09R
$$


........................KEY........................
SKY/WX - SKY CONDITION/WEATHER
TMP    - TEMPERATURE IN FAHRENHEIT
DP     - DEW POINT IN FAHRENHEIT
RH     - RELATIVE HUMIDITY IN PERCENT
WIND   - DIRECTION AND SPEED IN MILES PER HOUR (MPH)
VRB    - VARIABLE WIND DIRECTION
PRES   - MEAN SEA LEVEL PRESSURE IN INCHES OF MERCURY
         F - FALLING PRESSURE   R - RISING PRESSURE
         S - STEADY PRESSURE
VSB    - VISIBILITY IN MILES
HX     - HEAT INDEX IN FAHRENHEIT
WCI    - WIND CHILL INDEX IN FAHRENHEIT
TC     - TEMPERATURE IN CELSIUS WHICH IS ALSO KNOWN AS
         TEMPERATURE IN CENTIGRADE
AFB    - AIR FORCE BASE
         LUKE AFB IS LUKE AIR FORCE BASE
         DAVIS-MONTHAN IS DAVIS-MONTHAN AIR FORCE BASE
NAS    - NAVAL AIR STATION
         EL CENTRO NAS IS EL CENTRO NAVAL AIR STATION
N/A    - NOT AVAILABLE



USA.gov is the U.S. government's official web portal to all federal, state and local government web resources and services.